GW7845 Weather Reports


time (UTC)temp
C
wind
direction
speed
KPH
gust
KPH
rain 1hr
cm
rain 24hr
cm
rain mn
cm
humidity
%
barometer
mb
20260906122507 28 234 32.2 35.4 0.00 0.00 0.00 74 1021.9
20260906122013 28 237 27.4 35.4 0.00 0.00 0.00 75 1021.9
20260906121523 28 227 27.4 35.4 0.00 0.00 0.00 76 1021.9
20260906121018 28 227 32.2 35.4 0.00 0.00 0.00 74 1021.9
20260906120513 28 236 22.5 32.2 0.00 0.00 0.00 76 1022.0
20260906120040 28 235 25.7 32.2 0.00 0.00 0.00 78 1022.1
20260906115518 28 235 25.7 32.2 0.00 0.00 0.00 78 1022.0
20260906115017 28 239 29.0 32.2 0.00 0.00 0.00 78 1022.1
20260906114547 28 221 27.4 30.6 0.00 0.00 0.00 80 1022.1
20260906114003 28 232 24.1 30.6 0.00 0.00 0.00 80 1022.1
20260906113518 28 213 25.7 30.6 0.00 0.00 0.00 79 1022.1
20260906113012 28 226 29.0 33.8 0.00 0.00 0.00 79 1022.0
20260906112509 28 235 30.6 33.8 0.00 0.00 0.00 78 1022.1
20260906112008 28 226 25.7 30.6 0.00 0.00 0.00 77 1022.1
20260906111537 28 217 25.7 29.0 0.00 0.00 0.00 77 1022.2
20260906111016 29 225 27.4 30.6 0.00 0.00 0.00 75 1022.3
20260906110512 28 210 25.7 30.6 0.00 0.00 0.00 77 1022.3
20260906110022 28 229 20.9 29.0 0.00 0.00 0.00 78 1022.4
20260906105518 28 227 24.1 27.4 0.00 0.00 0.00 76 1022.5
20260906105019 28 224 22.5 25.7 0.00 0.00 0.00 76 1022.5
20260906104540 28 209 20.9 22.5 0.00 0.00 0.00 76 1022.5
20260906104017 28 206 17.7 20.9 0.00 0.00 0.00 76 1022.5
20260906103517 28 225 16.1 20.9 0.00 0.00 0.00 76 1022.6
20260906103037 28 215 14.5 22.5 0.00 0.00 0.00 76 1022.6
20260906102520 28 215 16.1 20.9 0.00 0.00 0.00 75 1022.7
20260906102008 28 223 17.7 22.5 0.00 0.00 0.00 75 1022.7
20260906101516 28 215 16.1 22.5 0.00 0.00 0.00 76 1022.7
20260906101019 28 221 17.7 20.9 0.00 0.00 0.00 78 1022.7
20260906100512 28 215 16.1 24.1 0.00 0.00 0.00 79 1022.7
20260906100025 27 216 14.5 24.1 0.00 0.00 0.00 80 1022.8
20260906095515 28 192 16.1 20.9 0.00 0.00 0.00 79 1022.9
20260906095013 27 211 16.1 25.7 0.00 0.00 0.00 79 1023.0
20260906094554 27 222 16.1 25.7 0.00 0.00 0.00 80 1022.9
20260906094012 27 202 17.7 20.9 0.00 0.00 0.00 80 1022.9
20260906093516 27 221 16.1 22.5 0.00 0.00 0.00 80 1022.9
20260906093045 27 219 16.1 22.5 0.00 0.00 0.00 81 1022.9
20260906092514 27 221 16.1 20.9 0.00 0.00 0.00 81 1022.9
20260906092020 27 202 12.9 19.3 0.00 0.00 0.00 82 1023.0
20260906091533 27 200 12.9 19.3 0.00 0.00 0.00 83 1022.9
20260906091020 27 205 14.5 17.7 0.00 0.00 0.00 83 1022.9
20260906090508 27 195 12.9 19.3 0.00 0.00 0.00 82 1023.0
20260906090024 27 202 12.9 17.7 0.00 0.00 0.00 82 1023.1
20260906085510 27 195 12.9 17.7 0.00 0.00 0.00 82 1023.1
20260906085017 27 202 11.3 17.7 0.00 0.00 0.00 82 1023.1
20260906084534 27 214 11.3 20.9 0.00 0.00 0.00 82 1023.1
20260906084015 27 194 11.3 19.3 0.00 0.00 0.00 82 1023.2
20260906083513 27 190 9.7 16.1 0.00 0.00 0.00 82 1023.1
20260906083043 27 186 9.7 17.7 0.00 0.00 0.00 83 1023.1
20260906082516 26 182 12.9 17.7 0.00 0.00 0.00 84 1023.2
20260906082020 26 173 8.0 17.7 0.00 0.00 0.00 83 1023.1
20260906081537 26 181 6.4 17.7 0.00 0.00 0.00 81 1023.1
20260906081017 27 182 9.7 14.5 0.00 0.00 0.00 81 1023.1
20260906080508 26 199 9.7 14.5 0.00 0.00 0.00 84 1023.1
20260906080018 26 194 6.4 16.1 0.00 0.00 0.00 84 1023.1
20260906075517 26 176 6.4 14.5 0.00 0.00 0.00 83 1023.1
20260906075017 26 192 6.4 17.7 0.00 0.00 0.00 82 1023.2
20260906074534 26 175 8.0 17.7 0.00 0.00 0.00 82 1023.2
20260906074016 26 169 9.7 16.1 0.00 0.00 0.00 82 1023.1
20260906073514 26 191 8.0 16.1 0.00 0.00 0.00 82 1023.1
20260906073030 26 163 9.7 16.1 0.00 0.00 0.00 81 1023.1
20260906072515 27 166 9.7 16.1 0.00 0.00 0.00 79 1023.0
20260906072003 26 187 6.4 12.9 0.00 0.00 0.00 80 1023.0
20260906071530 26 181 6.4 12.9 0.00 0.00 0.00 83 1023.0
20260906071004 26 180 6.4 11.3 0.00 0.00 0.00 80 1023.0
20260906070509 26 167 6.4 9.7 0.00 0.00 0.00 81 1023.1
20260906070017 26 174 6.4 9.7 0.00 0.00 0.00 81 1023.2
20260906065510 26 186 6.4 12.9 0.00 0.00 0.00 82 1023.2
20260906065011 26 194 6.4 12.9 0.00 0.00 0.00 81 1023.2
20260906064534 26 202 8.0 14.5 0.00 0.00 0.00 81 1023.2
20260906064013 26 179 6.4 14.5 0.00 0.00 0.00 81 1023.0
20260906063513 26 174 8.0 12.9 0.00 0.00 0.00 80 1023.0
20260906063039 26 163 6.4 12.9 0.00 0.00 0.00 81 1023.0
20260906062518 26 171 8.0 12.9 0.00 0.00 0.00 80 1023.0
20260906062018 26 153 6.4 12.9 0.00 0.00 0.00 82 1022.9
20260906061532 26 138 6.4 12.9 0.00 0.00 0.00 81 1022.8
20260906061015 26 93 4.8 12.9 0.00 0.00 0.00 81 1022.9
20260906060506 26 138 6.4 12.9 0.00 0.00 0.00 81 1022.9
20260906060035 26 136 6.4 14.5 0.00 0.00 0.00 80 1022.9
20260906055510 26 111 9.7 14.5 0.00 0.00 0.00 79 1022.9
20260906055007 27 102 6.4 9.7 0.00 0.00 0.00 79 1022.8
20260906054541 26 69 3.2 9.7 0.00 0.00 0.00 79 1022.8
20260906054013 27 107 4.8 8.0 0.00 0.00 0.00 76 1022.9
20260906053509 28 158 3.2 8.0 0.00 0.00 0.00 72 1022.9
20260906053039 28 79 3.2 8.0 0.00 0.00 0.00 72 1022.9
20260906052515 28 85 3.2 8.0 0.00 0.00 0.00 74 1022.9
20260906052019 27 15 4.8 6.4 0.00 0.00 0.00 75 1022.8
20260906051541 28 59 3.2 6.4 0.00 0.00 0.00 74 1022.7
20260906051015 28 51 1.6 6.4 0.00 0.00 0.00 70 1022.7
20260906050515 28 63 1.6 8.0 0.00 0.00 0.00 73 1022.7
20260906050038 28 45 3.2 8.0 0.00 0.00 0.00 73 1022.6
20260906045520 27 35 3.2 6.4 0.00 0.00 0.00 76 1022.7
20260906045018 27 39 3.2 6.4 0.00 0.00 0.00 76 1022.6
20260906044533 27 57 3.2 6.4 0.00 0.00 0.00 77 1022.6
20260906044015 27 42 1.6 8.0 0.00 0.00 0.00 79 1022.6
20260906043520 27 351 3.2 8.0 0.00 0.00 0.00 80 1022.7
20260906043036 26 17 3.2 8.0 0.00 0.00 0.00 79 1022.6
20260906042518 26 340 4.8 8.0 0.00 0.00 0.00 78 1022.6
20260906042003 26 342 4.8 8.0 0.00 0.00 0.00 78 1022.6
20260906041505 26 348 6.4 9.7 0.00 0.00 0.00 77 1022.5
20260906041002 26 360 6.4 9.7 0.00 0.00 0.00 78 1022.4
20260906040502 26 337 6.4 9.7 0.00 0.00 0.00 78 1022.5
20260906040013 26 350 6.4 9.7 0.00 0.00 0.00 78 1022.5
20260906035502 26 352 6.4 9.7 0.00 0.00 0.00 77 1022.4
20260906035004 26 344 4.8 9.7 0.00 0.00 0.00 77 1022.5
20260906034506 26 360 4.8 8.0 0.00 0.00 0.00 78 1022.3
20260906034004 26 352 4.8 8.0 0.00 0.00 0.00 75 1022.4
20260906033503 26 352 3.2 6.4 0.00 0.00 0.00 76 1022.4
20260906033004 26 57 1.6 6.4 0.00 0.00 0.00 76 1022.3
20260906032503 26 9 1.6 6.4 0.00 0.00 0.00 78 1022.3
20260906032003 26 348 3.2 11.3 0.00 0.00 0.00 78 1022.3
20260906031501 26 5 4.8 11.3 0.00 0.00 0.00 78 1022.2
20260906031003 26 345 4.8 12.9 0.00 0.00 0.00 77 1022.2
20260906030503 26 51 4.8 12.9 0.00 0.00 0.00 77 1022.1
20260906030009 26 32 4.8 9.7 0.00 0.00 0.00 76 1022.2
20260906025501 26 339 4.8 14.5 0.00 0.00 0.00 77 1022.2
20260906025003 26 42 6.4 14.5 0.00 0.00 0.00 78 1022.1
20260906024517 26 41 4.8 8.0 0.00 0.00 0.00 77 1022.1
20260906024001 26 352 1.6 8.0 0.00 0.00 0.00 77 1022.0
20260906023505 26 331 4.8 8.0 0.00 0.00 0.00 78 1021.9
20260906023005 26 327 6.4 8.0 0.00 0.00 0.00 75 1021.9
20260906022502 26 351 4.8 8.0 0.00 0.00 0.00 75 1021.9
20260906022002 26 340 6.4 8.0 0.00 0.00 0.00 73 1021.9
20260906021507 26 347 4.8 6.4 0.00 0.00 0.00 72 1022.0
20260906021003 26 345 3.2 6.4 0.00 0.00 0.00 73 1022.0
20260906020502 26 346 1.6 8.0 0.00 0.00 0.00 73 1021.9
20260906020006 26 323 4.8 8.0 0.00 0.00 0.00 72 1021.9
20260906015503 27 352 1.6 6.4 0.00 0.00 0.00 75 1021.9
20260906015003 26 342 3.2 6.4 0.00 0.00 0.00 73 1021.9
20260906014505 26 5 3.2 6.4 0.00 0.00 0.00 72 1021.9
20260906014003 26 348 1.6 4.8 0.00 0.00 0.00 74 1021.9
20260906013503 26 348 1.6 4.8 0.00 0.00 0.00 74 1021.9
20260906013020 26 344 3.2 9.7 0.00 0.00 0.00 73 1021.9
20260906012505 26 347 4.8 9.7 0.00 0.00 0.00 73 1022.0
20260906012003 26 360 4.8 8.0 0.00 0.00 0.00 73 1021.9
20260906011505 26 347 4.8 8.0 0.00 0.00 0.00 73 1021.8
20260906011003 26 360 4.8 8.0 0.00 0.00 0.00 73 1021.9
20260906010502 26 5 4.8 8.0 0.00 0.00 0.00 73 1021.9
20260906010004 26 320 3.2 6.4 0.00 0.00 0.00 73 1021.9
20260906005505 26 342 1.6 6.4 0.00 0.00 0.00 75 1021.9
20260906005003 26 352 1.6 6.4 0.00 0.00 0.00 77 1021.9
20260906004506 26 350 4.8 6.4 0.00 0.00 0.00 75 1021.9
20260906004004 26 351 1.6 6.4 0.00 0.00 0.00 77 1021.9
20260906003504 26 346 3.2 6.4 0.00 0.00 0.00 76 1021.9
20260906003004 27 350 3.2 6.4 0.00 0.00 0.00 76 1021.9
20260906002502 27 350 1.6 4.8 0.00 0.00 0.00 78 1021.9
20260906002001 26 314 0.0 8.0 0.00 0.00 0.00 80 1021.9
20260906001508 26 348 4.8 8.0 0.00 0.00 0.00 79 1022.0
20260906001003 26 360 6.4 8.0 0.00 0.00 0.00 77 1022.0
20260906000504 26 360 4.8 6.4 0.00 0.00 0.00 76 1021.9
20260906000009 27 351 1.6 4.8 0.00 0.00 0.00 78 1021.9
20260905235502 26 350 1.6 6.4 0.00 0.00 0.00 79 1021.8
20260905235003 26 300 3.2 8.0 0.00 0.00 0.00 79 1021.9
20260905234505 26 5 4.8 8.0 0.00 0.00 0.00 77 1021.9
20260905234003 26 360 4.8 6.4 0.00 0.00 0.00 77 1021.9
20260905233503 27 352 3.2 6.4 0.00 0.00 0.00 76 1022.0
20260905233010 27 352 3.2 6.4 0.00 0.00 0.00 75 1021.9
20260905232504 27 325 1.6 12.9 0.00 0.00 0.00 75 1021.9
20260905232002 26 5 3.2 12.9 0.00 0.00 0.00 76 1022.0
20260905231508 26 340 9.7 12.9 0.00 0.00 0.00 74 1022.0
20260905231003 26 330 8.0 12.9 0.00 0.00 0.00 73 1022.0
20260905230504 26 352 6.4 11.3 0.00 0.00 0.00 74 1022.0
20260905230010 26 5 8.0 11.3 0.00 0.00 0.00 74 1022.0
20260905225505 26 352 8.0 9.7 0.00 0.00 0.00 75 1022.0
20260905225002 26 348 8.0 9.7 0.00 0.00 0.00 76 1022.0
20260905224507 26 338 4.8 9.7 0.00 0.00 0.00 77 1022.0
20260905224002 26 343 6.4 12.9 0.00 0.00 0.00 78 1022.0
20260905223504 26 327 9.7 14.5 0.00 0.00 0.00 77 1022.0
20260905223010 24 348 8.0 14.5 0.00 0.00 0.00 83 1022.1
20260905222504 24 351 8.0 12.9 0.00 0.00 0.00 83 1022.1
20260905222004 24 15 6.4 8.0 0.00 0.00 0.00 83 1022.1
20260905221508 24 325 1.6 8.0 0.00 0.00 0.00 83 1022.2
20260905221006 24 348 3.2 11.3 0.00 0.00 0.00 83 1022.2
20260905220505 24 20 3.2 11.3 0.00 0.00 0.00 83 1022.3
20260905220012 24 17 6.4 12.9 0.00 0.00 0.00 83 1022.3
20260905215504 24 12 8.0 14.5 0.00 0.00 0.00 83 1022.3
20260905215004 25 23 8.0 14.5 0.00 0.00 0.00 83 1022.3
20260905214511 25 336 8.0 9.7 0.00 0.00 0.00 83 1022.2
20260905214006 25 350 4.8 8.0 0.00 0.00 0.00 83 1022.3
20260905213506 25 360 3.2 8.0 0.00 0.00 0.00 82 1022.3
20260905213009 25 338 4.8 8.0 0.00 0.00 0.00 82 1022.3
20260905212505 25 350 1.6 3.2 0.00 0.00 0.00 82 1022.3
20260905212004 25 339 0.0 1.6 0.00 0.00 0.00 82 1022.3
20260905211508 26 330 0.0 3.2 0.00 0.00 0.00 83 1022.4
20260905211008 26 341 0.0 6.4 0.00 0.00 0.00 83 1022.6
20260905210504 26 348 3.2 6.4 0.00 0.00 0.00 83 1022.5
20260905210012 26 45 3.2 8.0 0.00 0.00 0.00 83 1022.6
20260905205506 26 10 3.2 14.5 0.00 0.00 0.00 83 1022.6
20260905205008 25 26 6.4 14.5 0.00 0.00 0.00 83 1022.6
20260905204520 25 22 8.0 16.1 0.00 0.00 0.00 83 1022.7
20260905204008 25 22 9.7 16.1 0.00 0.00 0.00 83 1022.7
20260905203507 25 352 8.0 14.5 0.00 0.00 0.00 83 1022.7
20260905203012 25 336 8.0 14.5 0.00 0.00 0.00 83 1022.7
20260905202506 25 19 9.7 14.5 0.00 0.00 0.00 83 1022.6
20260905202007 25 5 4.8 12.9 0.00 0.00 0.00 83 1022.6
20260905201513 25 23 6.4 12.9 0.00 0.00 0.00 83 1022.6
20260905201006 25 348 4.8 9.7 0.00 0.00 0.00 84 1022.6
20260905200508 25 30 3.2 8.0 0.00 0.00 0.00 84 1022.6
20260905200013 25 338 4.8 11.3 0.00 0.00 0.00 84 1022.6
20260905195508 25 19 6.4 11.3 0.00 0.00 0.00 84 1022.6
20260905195011 25 12 6.4 9.7 0.00 0.00 0.00 84 1022.5
20260905194516 25 360 4.8 11.3 0.00 0.00 0.00 83 1022.6
20260905194006 25 17 4.8 11.3 0.00 0.00 0.00 83 1022.5
20260905193506 25 26 4.8 8.0 0.00 0.00 0.00 83 1022.5
20260905193015 25 350 4.8 8.0 0.00 0.00 0.00 83 1022.5
20260905192512 25 360 6.4 8.0 0.00 0.00 0.00 83 1022.5
20260905192009 26 14 1.6 4.8 0.00 0.00 0.00 83 1022.5
20260905191516 26 13 0.0 4.8 0.00 0.00 0.00 82 1022.5
20260905191010 26 43 0.0 1.6 0.00 0.00 0.00 82 1022.5
20260905190506 26 30 0.0 3.2 0.00 0.00 0.00 82 1022.6
20260905190015 26 5 0.0 3.2 0.00 0.00 0.00 82 1022.6
20260905185507 26 17 0.0 1.6 0.00 0.00 0.00 82 1022.7
20260905185003 26 17 0.0 0.0 0.00 0.00 0.00 82 1022.7
20260905184522 26 19 0.0 0.0 0.00 0.00 0.00 81 1022.7
20260905184008 26 20 0.0 0.0 0.00 0.00 0.00 81 1022.7
20260905183507 26 20 0.0 0.0 0.00 0.00 0.00 81 1022.7
20260905183018 26 27 0.0 0.0 0.00 0.00 0.00 81 1022.6
20260905182508 27 34 0.0 0.0 0.00 0.00 0.00 80 1022.6
20260905182008 27 108 0.0 0.0 0.00 0.00 0.00 80 1022.6
20260905181520 27 109 0.0 0.0 0.00 0.00 0.00 80 1022.6
20260905181005 27 116 0.0 1.6 0.00 0.00 0.00 80 1022.6
20260905180510 27 144 0.0 1.6 0.00 0.00 0.00 81 1022.5
20260905180018 27 148 0.0 1.6 0.00 0.00 0.00 80 1022.5
20260905175508 27 146 0.0 1.6 0.00 0.00 0.00 80 1022.5
20260905175010 27 150 0.0 4.8 0.00 0.00 0.00 80 1022.5
20260905174519 27 145 0.0 4.8 0.00 0.00 0.00 79 1022.4
20260905174006 27 156 1.6 4.8 0.00 0.00 0.00 79 1022.5
20260905173505 27 153 0.0 1.6 0.00 0.00 0.00 79 1022.4
20260905173017 27 144 0.0 1.6 0.00 0.00 0.00 79 1022.4
20260905172506 28 135 0.0 6.4 0.00 0.00 0.00 79 1022.4
20260905172009 28 256 0.0 6.4 0.00 0.00 0.00 79 1022.3
20260905171519 28 76 0.0 1.6 0.00 0.00 0.00 79 1022.2
20260905171007 28 258 0.0 1.6 0.00 0.00 0.00 78 1022.2
20260905170510 28 259 0.0 6.4 0.00 0.00 0.00 78 1022.2
20260905170018 28 249 0.0 6.4 0.00 0.00 0.00 78 1022.2
20260905165508 28 239 0.0 8.0 0.00 0.00 0.00 78 1022.1
20260905165013 28 221 1.6 9.7 0.00 0.00 0.00 77 1022.1
20260905164521 28 259 1.6 6.4 0.00 0.00 0.00 77 1022.0
20260905164013 28 261 0.0 12.9 0.00 0.00 0.00 76 1022.1
20260905163511 28 267 1.6 12.9 0.00 0.00 0.00 76 1022.1
20260905163021 28 263 1.6 9.7 0.00 0.00 0.00 76 1022.1
20260905162508 28 252 0.0 9.7 0.00 0.00 0.00 75 1022.0
20260905162010 28 262 0.0 12.9 0.00 0.00 0.00 75 1022.0
20260905161519 28 254 1.6 12.9 0.00 0.00 0.00 75 1022.0
20260905161012 28 240 0.0 11.3 0.00 0.00 0.00 74 1022.0
20260905160510 28 241 1.6 11.3 0.00 0.00 0.00 73 1022.1
20260905160020 29 259 1.6 9.7 0.00 0.00 0.00 73 1022.0
20260905155511 29 256 1.6 9.7 0.00 0.00 0.00 72 1022.1
20260905155010 30 248 0.0 9.7 0.00 0.00 0.00 71 1022.0
20260905154618 30 263 0.0 11.3 0.00 0.00 0.00 71 1022.1
20260905154013 30 283 0.0 11.3 0.00 0.00 0.00 70 1022.2
20260905153513 30 257 1.6 6.4 0.00 0.00 0.00 68 1022.1
20260905153024 31 244 1.6 6.4 0.00 0.00 0.00 67 1022.2
20260905152509 31 260 1.6 9.7 0.00 0.00 0.00 66 1022.2
20260905152012 31 245 1.6 11.3 0.00 0.00 0.00 66 1022.1
20260905151530 31 271 1.6 12.9 0.00 0.00 0.00 65 1022.1
20260905151010 31 248 1.6 12.9 0.00 0.00 0.00 65 1022.2
20260905150513 31 233 0.0 12.9 0.00 0.00 0.00 65 1022.1
20260905150020 32 261 1.6 12.9 0.00 0.00 0.00 64 1022.1
20260905145508 32 261 0.0 9.7 0.00 0.00 0.00 65 1022.1
20260905145010 32 250 0.0 9.7 0.00 0.00 0.00 65 1022.2
20260905144523 32 257 0.0 14.5 0.00 0.00 0.00 65 1022.1
20260905144013 32 252 1.6 16.1 0.00 0.00 0.00 66 1022.1
20260905143515 32 243 0.0 16.1 0.00 0.00 0.00 67 1022.1
20260905143026 32 240 0.0 9.7 0.00 0.00 0.00 67 1022.2
20260905142512 32 248 0.0 9.7 0.00 0.00 0.00 67 1022.2
20260905142013 32 161 0.0 14.5 0.00 0.00 0.00 67 1022.2
20260905141527 32 254 1.6 14.5 0.00 0.00 0.00 66 1022.2
20260905141014 32 257 1.6 12.9 0.00 0.00 0.00 66 1022.2
20260905140513 32 265 3.2 12.9 0.00 0.00 0.00 65 1022.2
20260905140032 32 267 1.6 12.9 0.00 0.00 0.00 65 1022.2
20260905135512 32 237 0.0 12.9 0.00 0.00 0.00 65 1022.2
20260905135011 32 267 0.0 14.5 0.00 0.00 0.00 65 1022.2
20260905134523 32 223 0.0 14.5 0.00 0.00 0.00 65 1022.2
20260905134011 32 263 1.6 14.5 0.00 0.00 0.00 65 1022.2
20260905133513 32 254 0.0 11.3 0.00 0.00 0.00 65 1022.4
20260905133023 32 244 0.0 12.9 0.00 0.00 0.00 65 1022.4
20260905132514 32 245 3.2 12.9 0.00 0.00 0.00 64 1022.4
20260905132005 32 242 0.0 12.9 0.00 0.00 0.00 64 1022.5
20260905131506 32 248 0.0 12.9 0.00 0.00 0.00 65 1022.4
20260905131008 32 257 1.6 14.5 0.00 0.00 0.00 64 1022.4
20260905130505 32 211 3.2 14.5 0.00 0.00 0.00 64 1022.4
20260905130013 32 218 3.2 8.0 0.00 0.00 0.00 64 1022.4
20260905125507 32 267 1.6 9.7 0.00 0.00 0.00 64 1022.5
20260905125006 32 255 1.6 9.7 0.00 0.00 0.00 64 1022.4
20260905124522 32 219 1.6 11.3 0.00 0.00 0.00 64 1022.4
20260905124009 32 207 1.6 11.3 0.00 0.00 0.00 64 1022.4
20260905123511 32 240 0.0 16.1 0.00 0.00 0.00 64 1022.4
20260905123023 32 238 0.0 16.1 0.00 0.00 0.00 64 1022.4